This is the latest recevied weather packets stored in our database for station/object KG4LKY-5. If no packets are shown the sender has not sent any weather packets the latest 10 day(s).
| Time | Temp. | Humidity | Pressure | Rain* | Wind** | Luminosity | Snow |
|---|---|---|---|---|---|---|---|
| 1777936881 | 22.78° C | 36% | 1010.6 hPa | 1.78 mm | - | - | - |
| 1777936581 | 22.22° C | 38% | 1010.8 hPa | 1.78 mm | - | - | - |
| 1777936281 | 22.78° C | 40% | 1010.8 hPa | 1.78 mm | - | - | - |
| 1777935980 | 23.89° C | 34% | 1010.8 hPa | 1.78 mm | - | - | - |
| 1777935680 | 22.78° C | 39% | 1010.8 hPa | 1.78 mm | - | - | - |
| 1777935380 | 22.22° C | 43% | 1010.6 hPa | 1.78 mm | - | - | - |
| 1777935080 | 22.78° C | 43% | 1010.8 hPa | 1.78 mm | - | - | - |
| 1777934779 | 22.78° C | 39% | 1010.8 hPa | 1.78 mm | - | - | - |
| 1777934479 | 23.33° C | 39% | 1010.8 hPa | 1.78 mm | - | - | - |
| 1777934179 | 23.33° C | 38% | 1010.9 hPa | 1.78 mm | - | - | - |
| 1777933577 | 23.33° C | 39% | 1011 hPa | 1.78 mm | - | - | - |
| 1777933277 | 23.33° C | 38% | 1011 hPa | 1.78 mm | - | - | - |
| 1777932976 | 23.33° C | 37% | 1011.1 hPa | 1.78 mm | - | - | - |
| 1777932676 | 24.44° C | 37% | 1011 hPa | 1.78 mm | - | - | - |
| 1777932075 | 24.44° C | 35% | 1011 hPa | 1.78 mm | - | - | - |
| 1777931775 | 23.89° C | 35% | 1011 hPa | 1.78 mm | - | - | - |
| 1777931475 | 22.78° C | 35% | 1011.1 hPa | 1.78 mm | - | - | - |
| 1777931175 | 23.33° C | 34% | 1011.1 hPa | 1.78 mm | - | - | - |
| 1777930874 | 23.33° C | 34% | 1011 hPa | 1.78 mm | - | - | - |
| 1777930574 | 23.33° C | 35% | 1011 hPa | 1.78 mm | - | - | - |
| 1777930274 | 24.44° C | 33% | 1011 hPa | 1.78 mm | - | - | - |
| 1777929973 | 25° C | 31% | 1010.9 hPa | 1.78 mm | - | - | - |
| 1777929673 | 26.11° C | 32% | 1011 hPa | 1.78 mm | - | - | - |
| 1777929373 | 26.11° C | 30% | 1010.9 hPa | 1.78 mm | - | - | - |
| 1777929073 | 26.11° C | 30% | 1011 hPa | 1.78 mm | - | - | - |
* Rain since midnight (hover to see other rain measurements)
** Current wind speed in m/s (hover to see current wind gust speed)